Weather Roundup
Issued by NWS Chicago, IL

Home | Current Version | Previous Version | Text Only | Print | Product List | Glossary Off
Versions: 1 2 3 4 5 6 7 8 9 10 11 12 13 14 15 16 17 18 19 20 21 22 23 24 25 26 27 28 29 30 31 32 33 34 35 36 37 38 39 40 41 42 43 44 45 46 47 48 49 50

000
NZUS59 KLOT 170506
HRRLOT

CHICAGO AREA WEATHER ROUNDUP
NATIONAL WEATHER SERVICE CHICAGO/ROMEOVILLE IL
1200 AM CDT WED SEP 17 2014

NOTE: "FAIR" INDICATES FEW OR NO CLOUDS BELOW 12,000 FEET WITH NO
SIGNIFICANT WEATHER AND/OR OBSTRUCTIONS TO VISIBILITY.

* THESE STATIONS ARE NOT UNDER NWS QUALITY CONTROL. THEY ALSO MAY NOT
  REPORT WEATHER SUCH AS PRECIPITATION OR FOG.

ILZ005-006-012>014-019>023-170600-
NORTHEAST ILLINOIS

CITY           SKY/WX    TMP DP  RH WIND       PRES   REMARKS
OHARE          CLEAR     55  47  74 CALM      30.09S
MIDWAY         CLEAR     57  49  74 SE5       30.09S
AURORA         CLEAR     43  40  89 CALM      30.10S
LANSING*       CLEAR     47  46  97 CALM      30.10S
JOLIET*        CLEAR     44  42  94 CALM      30.10F
WAUKEGAN       CLEAR     45  43  93 SW3       30.08F
DUPAGE AIRPORT CLEAR     47  43  86 CALM      30.09S
WHEELING       CLEAR     50  46  86 CALM      30.10F
KANKAKEE*      CLEAR     45  44  98 CALM      30.10S
MORRIS*        CLEAR     46  46 100 CALM      30.09S
LEWIS AIRPORT* CLEAR     47  45  92 CALM      30.09F
NORTHERLY IS     N/A     58  51  78 S5          N/A
$$

WIZ051-052-058>065-066-070>072-170600-
SOUTHEAST WISCONSIN

CITY           SKY/WX    TMP DP  RH WIND       PRES   REMARKS
MILWAUKEE      CLEAR     51  44  77 SW5       30.08F
KENOSHA*       CLEAR     45  43  93 SW3       30.09F
RACINE*        CLEAR     49  44  83 SW6       30.10F
BURLINGTON       N/A     40  40 100 CALM      30.09S FOG
WAUKESHA       CLEAR     45  43  93 CALM      30.09F
WEST BEND      CLEAR     43  41  93 CALM      30.07F FOG
$$

INZ001>003-010>013-019-020-170600-
NORTHWEST INDIANA

CITY           SKY/WX    TMP DP  RH WIND       PRES   REMARKS
GARY*          CLEAR     48  46  94 CALM      30.10S
MICHIGAN CITY* NOT AVBL
RENSSELAER*    NOT AVBL
VALPARAISO     CLEAR     46  44  93 CALM      30.10F FOG
$$

LMZ740>746-170600-
SOUTHERN LAKE MICHIGAN

STATION/POSITION TIME  SKY/WX   TEMP WIND        PRES    VSBY
                                AIR  DIR/SP/G
                 (UTC)          (F)  (DEG/KT/KT) (MB)    (MI)
HARRISON CRIB    0500            60  130/  6/  6   N/A
BURNHAM HARBOR   0500            57  170/  4/  4   N/A
CALUMET HARBOR   0400            56   CALM  /  2 1017.8F
BURNS HARBOR     NOT AVBL
MICHIGAN CITY    0500            53  110/  7/  9   N/A
$$

ABBREVIATIONS USED IN REMARKS
   TC - TEMPERATURE IN CELSIUS
  WCI - WIND CHILL INDEX
   HX - HEAT INDEX
  VSB - VISIBILITY
$$


USA.gov is the U.S. government's official web portal to all federal, state and local government web resources and services.